| time (UTC) | temp F | wind direction | speed MPH | gust MPH | rain 1hr in | rain 24hr in | rain mn in | humidity % | barometer mb |
| 20260507050903 | 64 | 280 | 2.0 | 6.0 | 0.00 | 0.00 | 0.00 | 77 | 1017.4 |
| 20260507050003 | 64 | 277 | 1.0 | 6.0 | 0.00 | 0.00 | 0.00 | 79 | 1017.4 |
| 20260507045403 | 65 | 277 | 1.0 | 3.0 | 0.00 | 0.00 | 0.00 | 78 | 1017.3 |
| 20260507044503 | 65 | 277 | 1.0 | 2.0 | 0.00 | 0.00 | 0.00 | 78 | 1017.3 |
| 20260507043603 | 66 | 277 | 1.0 | 3.0 | 0.00 | 0.00 | 0.00 | 77 | 1017.3 |
| 20260507042703 | 66 | 279 | 1.0 | 4.0 | 0.00 | 0.00 | 0.00 | 77 | 1017.3 |
| 20260507041806 | 66 | 291 | 1.0 | 6.0 | 0.00 | 0.00 | 0.00 | 76 | 1017.1 |
| 20260507040903 | 67 | 271 | 2.0 | 4.0 | 0.00 | 0.00 | 0.00 | 75 | 1017.2 |
| 20260507040003 | 68 | 279 | 2.0 | 7.0 | 0.00 | 0.00 | 0.00 | 74 | 1017.2 |
| 20260507035403 | 68 | 308 | 2.0 | 7.0 | 0.00 | 0.00 | 0.00 | 73 | 1017.1 |
| 20260507034503 | 69 | 290 | 3.0 | 8.0 | 0.00 | 0.00 | 0.00 | 72 | 1017.0 |
| 20260507033603 | 70 | 294 | 3.0 | 6.0 | 0.00 | 0.00 | 0.00 | 71 | 1017.0 |
| 20260507032703 | 71 | 299 | 3.0 | 7.0 | 0.00 | 0.00 | 0.00 | 69 | 1016.9 |
| 20260507031803 | 72 | 288 | 3.0 | 5.0 | 0.00 | 0.00 | 0.00 | 66 | 1016.8 |
| 20260507030903 | 73 | 286 | 2.0 | 5.0 | 0.00 | 0.00 | 0.00 | 64 | 1016.7 |
| 20260507030003 | 74 | 285 | 2.0 | 4.0 | 0.00 | 0.00 | 0.00 | 62 | 1016.5 |
| 20260507025403 | 74 | 285 | 3.0 | 4.0 | 0.00 | 0.00 | 0.00 | 61 | 1016.4 |
| 20260507024503 | 75 | 276 | 3.0 | 4.0 | 0.00 | 0.00 | 0.00 | 61 | 1016.3 |
| 20260507023603 | 76 | 281 | 3.0 | 7.0 | 0.00 | 0.00 | 0.00 | 59 | 1016.3 |
| 20260507022703 | 77 | 295 | 3.0 | 6.0 | 0.00 | 0.00 | 0.00 | 58 | 1016.3 |
| 20260507021824 | 77 | 297 | 3.0 | 9.0 | 0.00 | 0.00 | 0.00 | 57 | 1016.2 |
| 20260507020903 | 78 | 303 | 3.0 | 7.0 | 0.00 | 0.00 | 0.00 | 56 | 1016.1 |
| 20260507020003 | 78 | 304 | 3.0 | 8.0 | 0.00 | 0.00 | 0.00 | 56 | 1016.1 |
| 20260507015403 | 78 | 302 | 4.0 | 8.0 | 0.00 | 0.00 | 0.00 | 55 | 1016.1 |
| 20260507014503 | 78 | 303 | 4.0 | 8.0 | 0.00 | 0.01 | 0.00 | 55 | 1016.2 |
| 20260507013603 | 78 | 323 | 4.0 | 8.0 | 0.00 | 0.01 | 0.00 | 53 | 1016.2 |
| 20260507012703 | 79 | 316 | 4.0 | 8.0 | 0.00 | 0.01 | 0.00 | 53 | 1016.1 |
| 20260507011803 | 79 | 318 | 3.0 | 6.0 | 0.00 | 0.01 | 0.00 | 53 | 1016.1 |
| 20260507010903 | 79 | 304 | 4.0 | 10.0 | 0.00 | 0.01 | 0.00 | 52 | 1016.1 |
| 20260507010003 | 79 | 303 | 4.0 | 10.0 | 0.00 | 0.01 | 0.00 | 52 | 1016.1 |
| 20260507005424 | 79 | 320 | 5.0 | 10.0 | 0.00 | 0.01 | 0.00 | 52 | 1016.2 |
| 20260507004503 | 79 | 326 | 4.0 | 9.0 | 0.00 | 0.01 | 0.00 | 51 | 1016.2 |
| 20260507003603 | 79 | 323 | 4.0 | 9.0 | 0.00 | 0.01 | 0.00 | 52 | 1016.2 |
| 20260507002724 | 80 | 330 | 5.0 | 9.0 | 0.00 | 0.01 | 0.00 | 51 | 1016.2 |
| 20260507001803 | 80 | 326 | 3.0 | 9.0 | 0.00 | 0.01 | 0.00 | 50 | 1016.2 |
| 20260507000903 | 80 | 326 | 4.0 | 9.0 | 0.00 | 0.01 | 0.00 | 51 | 1016.2 |
| 20260507000003 | 80 | 310 | 3.0 | 8.0 | 0.00 | 0.01 | 0.00 | 51 | 1016.2 |
| 20260506235403 | 80 | 305 | 3.0 | 8.0 | 0.00 | 0.01 | 0.00 | 51 | 1016.2 |
| 20260506234503 | 79 | 319 | 3.0 | 9.0 | 0.00 | 0.01 | 0.00 | 51 | 1016.3 |
| 20260506233603 | 79 | 313 | 3.0 | 9.0 | 0.00 | 0.01 | 0.00 | 52 | 1016.5 |
| 20260506232703 | 79 | 328 | 4.0 | 9.0 | 0.00 | 0.01 | 0.00 | 52 | 1016.5 |
| 20260506231824 | 79 | 336 | 5.0 | 11.0 | 0.00 | 0.01 | 0.00 | 53 | 1016.6 |
| 20260506230903 | 79 | 330 | 4.0 | 9.0 | 0.00 | 0.01 | 0.00 | 52 | 1016.7 |
| 20260506230003 | 79 | 298 | 4.0 | 13.0 | 0.00 | 0.01 | 0.00 | 51 | 1016.8 |
| 20260506225403 | 79 | 296 | 3.0 | 8.0 | 0.00 | 0.01 | 0.00 | 53 | 1016.8 |
| 20260506224503 | 78 | 313 | 4.0 | 10.0 | 0.00 | 0.01 | 0.00 | 53 | 1016.9 |
| 20260506223603 | 78 | 342 | 5.0 | 12.0 | 0.00 | 0.01 | 0.00 | 53 | 1017.0 |
| 20260506222703 | 78 | 323 | 3.0 | 9.0 | 0.00 | 0.01 | 0.00 | 52 | 1017.2 |
| 20260506221803 | 78 | 336 | 4.0 | 10.0 | 0.00 | 0.01 | 0.00 | 52 | 1017.3 |
| 20260506220903 | 78 | 333 | 4.0 | 9.0 | 0.00 | 0.01 | 0.00 | 53 | 1017.6 |
| 20260506220003 | 78 | 334 | 4.0 | 9.0 | 0.00 | 0.01 | 0.00 | 54 | 1017.7 |
| 20260506215403 | 77 | 356 | 3.0 | 8.0 | 0.00 | 0.01 | 0.00 | 53 | 1017.7 |
| 20260506214503 | 77 | 309 | 4.0 | 10.0 | 0.00 | 0.01 | 0.00 | 53 | 1017.9 |
| 20260506213603 | 77 | 323 | 3.0 | 8.0 | 0.00 | 0.01 | 0.00 | 54 | 1018.0 |
| 20260506212703 | 77 | 343 | 3.0 | 9.0 | 0.00 | 0.01 | 0.00 | 53 | 1018.0 |
| 20260506211803 | 76 | 299 | 3.0 | 8.0 | 0.00 | 0.01 | 0.00 | 55 | 1018.1 |
| 20260506210903 | 76 | 329 | 3.0 | 9.0 | 0.00 | 0.01 | 0.00 | 54 | 1018.1 |
| 20260506210003 | 76 | 339 | 3.0 | 9.0 | 0.00 | 0.01 | 0.00 | 53 | 1018.2 |
| 20260506205403 | 76 | 330 | 2.0 | 8.0 | 0.00 | 0.01 | 0.00 | 55 | 1018.3 |
| 20260506204503 | 75 | 327 | 3.0 | 9.0 | 0.00 | 0.01 | 0.00 | 54 | 1018.6 |
| 20260506203603 | 75 | 327 | 4.0 | 10.0 | 0.00 | 0.01 | 0.00 | 57 | 1018.7 |
| 20260506202703 | 74 | 323 | 3.0 | 8.0 | 0.00 | 0.01 | 0.00 | 56 | 1018.9 |
| 20260506201803 | 74 | 329 | 3.0 | 8.0 | 0.00 | 0.01 | 0.00 | 58 | 1019.0 |
| 20260506200903 | 73 | 343 | 4.0 | 9.0 | 0.00 | 0.01 | 0.00 | 57 | 1019.1 |
| 20260506200003 | 73 | 336 | 4.0 | 9.0 | 0.00 | 0.01 | 0.00 | 57 | 1019.1 |
| 20260506195403 | 73 | 331 | 3.0 | 9.0 | 0.00 | 0.01 | 0.00 | 56 | 1019.2 |
| 20260506194503 | 73 | 12 | 3.0 | 8.0 | 0.00 | 0.01 | 0.00 | 54 | 1019.2 |
| 20260506193603 | 73 | 28 | 2.0 | 6.0 | 0.00 | 0.01 | 0.00 | 57 | 1019.2 |
| 20260506192703 | 73 | 342 | 3.0 | 8.0 | 0.00 | 0.01 | 0.00 | 58 | 1019.3 |
| 20260506191803 | 73 | 354 | 3.0 | 7.0 | 0.00 | 0.01 | 0.00 | 59 | 1019.3 |
| 20260506190903 | 73 | 337 | 4.0 | 9.0 | 0.00 | 0.01 | 0.00 | 58 | 1019.5 |
| 20260506190024 | 73 | 335 | 3.0 | 8.0 | 0.00 | 0.01 | 0.00 | 58 | 1019.6 |
| 20260506185424 | 72 | 329 | 3.0 | 6.0 | 0.00 | 0.01 | 0.00 | 59 | 1019.6 |
| 20260506184524 | 72 | 313 | 3.0 | 8.0 | 0.00 | 0.01 | 0.00 | 61 | 1019.7 |
| 20260506183624 | 72 | 336 | 3.0 | 9.0 | 0.00 | 0.01 | 0.00 | 60 | 1019.7 |
| 20260506182724 | 72 | 320 | 3.0 | 9.0 | 0.00 | 0.01 | 0.00 | 61 | 1019.8 |
| 20260506181803 | 71 | 317 | 3.0 | 9.0 | 0.00 | 0.01 | 0.00 | 63 | 1019.8 |
| 20260506180903 | 71 | 337 | 3.0 | 6.0 | 0.00 | 0.01 | 0.00 | 62 | 1019.8 |
| 20260506180004 | 70 | 308 | 3.0 | 8.0 | 0.00 | 0.01 | 0.00 | 63 | 1019.8 |
| 20260506175424 | 70 | 288 | 3.0 | 8.0 | 0.00 | 0.01 | 0.00 | 64 | 1019.9 |
| 20260506174503 | 70 | 287 | 3.0 | 8.0 | 0.00 | 0.01 | 0.00 | 64 | 1019.9 |
| 20260506173603 | 69 | 335 | 3.0 | 5.0 | 0.00 | 0.01 | 0.00 | 65 | 1020.0 |
| 20260506172703 | 69 | 314 | 3.0 | 8.0 | 0.00 | 0.01 | 0.00 | 66 | 1019.9 |
| 20260506171803 | 68 | 285 | 3.0 | 8.0 | 0.00 | 0.01 | 0.00 | 68 | 1019.9 |
| 20260506170903 | 68 | 295 | 3.0 | 8.0 | 0.00 | 0.01 | 0.00 | 67 | 1020.1 |
| 20260506170003 | 67 | 290 | 3.0 | 6.0 | 0.00 | 0.01 | 0.00 | 69 | 1020.1 |
| 20260506165403 | 67 | 282 | 3.0 | 6.0 | 0.00 | 0.01 | 0.00 | 69 | 1020.0 |
| 20260506164503 | 66 | 311 | 2.0 | 6.0 | 0.00 | 0.01 | 0.00 | 72 | 1020.0 |
| 20260506163603 | 65 | 292 | 3.0 | 8.0 | 0.00 | 0.01 | 0.00 | 74 | 1020.0 |
| 20260506162724 | 64 | 294 | 3.0 | 8.0 | 0.00 | 0.01 | 0.00 | 76 | 1019.9 |
| 20260506161824 | 63 | 280 | 3.0 | 6.0 | 0.00 | 0.01 | 0.00 | 79 | 1020.0 |
| 20260506160924 | 62 | 274 | 2.0 | 7.0 | 0.00 | 0.01 | 0.00 | 80 | 1020.0 |
| 20260506160024 | 60 | 282 | 2.0 | 7.0 | 0.00 | 0.01 | 0.00 | 83 | 1020.1 |
| 20260506155424 | 60 | 281 | 2.0 | 7.0 | 0.00 | 0.01 | 0.00 | 83 | 1020.0 |
| 20260506154503 | 59 | 281 | 2.0 | 4.0 | 0.00 | 0.01 | 0.00 | 83 | 1020.1 |
| 20260506153603 | 58 | 245 | 2.0 | 4.0 | 0.00 | 0.01 | 0.00 | 84 | 1020.1 |
| 20260506152703 | 58 | 225 | 1.0 | 3.0 | 0.00 | 0.01 | 0.00 | 85 | 1020.1 |
| 20260506151803 | 58 | 286 | 1.0 | 4.0 | 0.00 | 0.01 | 0.00 | 86 | 1020.0 |
| 20260506150903 | 57 | 301 | 0.0 | 2.0 | 0.00 | 0.01 | 0.00 | 86 | 1020.1 |
| 20260506150003 | 57 | 301 | 0.0 | 3.0 | 0.00 | 0.01 | 0.00 | 87 | 1020.1 |
| 20260506145403 | 57 | 301 | 0.0 | 2.0 | 0.00 | 0.01 | 0.00 | 88 | 1020.1 |
| 20260506144503 | 57 | 301 | 0.0 | 2.0 | 0.00 | 0.01 | 0.00 | 88 | 1020.2 |
| 20260506143603 | 56 | 301 | 0.0 | 3.0 | 0.00 | 0.01 | 0.00 | 87 | 1020.1 |
| 20260506142703 | 56 | 302 | 1.0 | 3.0 | 0.00 | 0.01 | 0.00 | 88 | 1020.0 |
| 20260506141803 | 56 | 307 | 1.0 | 3.0 | 0.00 | 0.01 | 0.00 | 88 | 1020.0 |
| 20260506140903 | 56 | 316 | 1.0 | 4.0 | 0.00 | 0.01 | 0.00 | 88 | 1019.9 |
| 20260506140003 | 55 | 303 | 1.0 | 4.0 | 0.00 | 0.01 | 0.00 | 89 | 1019.8 |
| 20260506135403 | 55 | 303 | 1.0 | 4.0 | 0.00 | 0.01 | 0.00 | 89 | 1019.7 |
| 20260506134503 | 55 | 139 | 1.0 | 4.0 | 0.00 | 0.01 | 0.00 | 89 | 1019.6 |
| 20260506133603 | 55 | 143 | 0.0 | 2.0 | 0.00 | 0.01 | 0.00 | 89 | 1019.5 |
| 20260506132703 | 55 | 0 | 0.0 | 0.0 | 0.00 | 0.01 | 0.00 | 89 | 1019.5 |
| 20260506131803 | 55 | 0 | 0.0 | 0.0 | 0.00 | 0.01 | 0.00 | 89 | 1019.4 |
| 20260506130903 | 55 | 0 | 0.0 | 0.0 | 0.00 | 0.01 | 0.00 | 89 | 1019.5 |
| 20260506130003 | 55 | 0 | 0.0 | 0.0 | 0.00 | 0.01 | 0.00 | 89 | 1019.4 |
| 20260506125403 | 55 | 0 | 0.0 | 0.0 | 0.00 | 0.01 | 0.00 | 89 | 1019.4 |
| 20260506124524 | 55 | 0 | 0.0 | 0.0 | 0.00 | 0.01 | 0.00 | 89 | 1019.4 |
| 20260506123603 | 55 | 0 | 0.0 | 0.0 | 0.00 | 0.01 | 0.00 | 89 | 1019.2 |
| 20260506122703 | 55 | 0 | 0.0 | 0.0 | 0.00 | 0.01 | 0.00 | 89 | 1019.1 |
| 20260506121803 | 54 | 312 | 0.0 | 1.0 | 0.00 | 0.01 | 0.00 | 89 | 1019.1 |
| 20260506120903 | 54 | 312 | 0.0 | 2.0 | 0.00 | 0.01 | 0.00 | 90 | 1019.1 |
| 20260506120004 | 54 | 312 | 0.0 | 2.0 | 0.00 | 0.01 | 0.00 | 90 | 1019.0 |
| 20260506115403 | 54 | 312 | 0.0 | 2.0 | 0.00 | 0.01 | 0.00 | 89 | 1019.0 |
| 20260506114503 | 54 | 312 | 0.0 | 1.0 | 0.00 | 0.01 | 0.00 | 89 | 1019.0 |
| 20260506113603 | 54 | 312 | 0.0 | 1.0 | 0.00 | 0.01 | 0.00 | 89 | 1019.0 |
| 20260506112703 | 53 | 0 | 0.0 | 0.0 | 0.00 | 0.01 | 0.00 | 89 | 1018.9 |
| 20260506111806 | 53 | 0 | 0.0 | 0.0 | 0.00 | 0.01 | 0.00 | 89 | 1018.9 |
| 20260506110903 | 54 | 0 | 0.0 | 0.0 | 0.00 | 0.01 | 0.00 | 89 | 1018.6 |
| 20260506110003 | 54 | 0 | 0.0 | 0.0 | 0.00 | 0.01 | 0.00 | 89 | 1018.6 |
| 20260506105403 | 54 | 312 | 1.0 | 2.0 | 0.00 | 0.01 | 0.00 | 89 | 1018.6 |
| 20260506104503 | 54 | 312 | 1.0 | 4.0 | 0.00 | 0.01 | 0.00 | 89 | 1018.5 |
| 20260506103603 | 54 | 312 | 1.0 | 3.0 | 0.00 | 0.01 | 0.00 | 89 | 1018.5 |
| 20260506102703 | 53 | 312 | 1.0 | 3.0 | 0.00 | 0.01 | 0.00 | 89 | 1018.5 |
| 20260506101803 | 53 | 313 | 0.0 | 2.0 | 0.00 | 0.01 | 0.00 | 88 | 1018.5 |
| 20260506100903 | 53 | 312 | 1.0 | 4.0 | 0.00 | 0.01 | 0.00 | 88 | 1018.3 |
| 20260506100003 | 53 | 301 | 1.0 | 4.0 | 0.00 | 0.01 | 0.00 | 88 | 1018.3 |
| 20260506095403 | 53 | 299 | 1.0 | 4.0 | 0.00 | 0.01 | 0.00 | 88 | 1018.3 |
| 20260506094503 | 53 | 318 | 0.0 | 2.0 | 0.00 | 0.01 | 0.00 | 88 | 1018.0 |
| 20260506093603 | 53 | 313 | 1.0 | 4.0 | 0.00 | 0.01 | 0.00 | 88 | 1018.0 |
| 20260506092724 | 53 | 294 | 1.0 | 4.0 | 0.00 | 0.01 | 0.00 | 88 | 1017.9 |
| 20260506091803 | 53 | 294 | 0.0 | 2.0 | 0.00 | 0.01 | 0.00 | 88 | 1018.0 |
| 20260506090903 | 53 | 294 | 0.0 | 1.0 | 0.00 | 0.01 | 0.00 | 88 | 1018.0 |
| 20260506090024 | 53 | 294 | 0.0 | 2.0 | 0.00 | 0.01 | 0.00 | 88 | 1018.1 |
| 20260506085403 | 53 | 294 | 0.0 | 1.0 | 0.00 | 0.01 | 0.00 | 88 | 1018.1 |
| 20260506084503 | 52 | 294 | 0.0 | 1.0 | 0.00 | 0.01 | 0.00 | 87 | 1018.3 |
| 20260506083624 | 52 | 0 | 0.0 | 0.0 | 0.00 | 0.01 | 0.00 | 86 | 1018.3 |
| 20260506082703 | 53 | 0 | 0.0 | 0.0 | 0.00 | 0.01 | 0.00 | 85 | 1018.4 |
| 20260506081824 | 53 | 0 | 0.0 | 0.0 | 0.00 | 0.01 | 0.00 | 85 | 1018.5 |
| 20260506080903 | 53 | 0 | 0.0 | 0.0 | 0.00 | 0.01 | 0.00 | 85 | 1018.4 |
| 20260506072703 | 54 | 294 | 0.0 | 1.0 | 0.00 | 0.05 | 0.00 | 85 | 1018.1 |
| 20260506071803 | 55 | 294 | 0.0 | 3.0 | 0.00 | 0.05 | 0.00 | 85 | 1018.1 |
| 20260506070903 | 55 | 289 | 1.0 | 3.0 | 0.00 | 0.05 | 0.00 | 85 | 1017.8 |
| 20260506061824 | 55 | 292 | 2.0 | 4.0 | 0.00 | 0.05 | 0.05 | 85 | 1017.3 |
| 20260506060924 | 55 | 265 | 1.0 | 3.0 | 0.00 | 0.05 | 0.05 | 84 | 1017.1 |